Weather in Parkent

Uzbekistan     41°17′42″N   69°40′24″E
temp.,
°C
wind,
m/s
gust,
m/s
humid.,
%
clouds,
%
prec.,
mm/h
press.,
hPa
HPBL,
m
13 june, sun
sun1323:00+21ese43270 0.0 100735
02:00+20ese433299 0.0 100829
05:00+19se2236100 0.0 100815
08:00+24ssw3329100 0.0 1009645
11:00+26sw55221 0.0 10091744
14:00+28wsw55180 0.0 10072642
17:00+28w45185 0.0 10063167
20:00+21ese22300 0.0 100711
14 june, mon
mon1423:00+20se33300 0.0 100719
02:00+19ese33270 0.0 100721
05:00+17se32265 0.0 100814
08:00+22sw45172 0.0 1008817
11:00+25sw55160 0.0 10071272
14:00+26wsw43140 0.0 10061916
17:00+26w33110 0.0 10052135
20:00+19se43200 0.0 100624
15 june, tue
tue1523:00+18ese43210 0.0 100627
02:00+18ese54210 0.0 100539
05:00+16e22220 0.0 100612
08:00+21wsw22200 0.0 1008491
11:00+23w43200 0.0 10081308
14:00+27wnw53164 0.0 10062952
17:00+27nnw431560 0.0 10053534
20:00+20e33294 0.0 100622
16 june, wed
wed1623:00+18ese33273 0.0 100620
02:00+18ese43261 0.0 100621
05:00+17e33260 0.0 100617
08:00+22wnw22210 0.0 1007595
11:00+26w44171 0.0 10072058
14:00+28w541529 0.0 10053307
17:00+28nnw23156 0.0 10053388
20:00+20ese43300 0.0 100730
17 june, thu
thu1723:00+20e432613 0.0 100726
02:00+19ese332514 0.0 100715
05:00+19e432778 0.0 100825
08:00+24wnw222237 0.0 1008792
11:00+27w541979 0.0 10073189
14:00+24e663099 0.1 1007622
17:00+27n242054 0.1 10062535
20:00+21ese33275 0.0 100617